Retour au catalogue

OPS 4682 DEB

ActifPO
NORAD 18534·DEBRIS·🇺🇸 United States

Lancé Apr 3, 1965 depuis Vandenberg Space Force Base

Loading…

Prochains Passages (prochaines 24 heures)

TLE

FraisSource: Space-Track

Époque: Sep 14, 2026, 15:05 UTC

1 18534U 65027AE  26257.62903024  .00000060  00000-0  18350-3 0  9995
2 18534  90.2819  26.2296 0027953 230.3993 143.6830 12.96223816852587

Suivez OPS 4682 DEB en temps réel avec AllMySat

Download on the App Store